Location: Unspecified
(0.0000°N, 0.0000°E)
Time: 17:49:44
(UTC+00:00)

STARLINK 1045 - Pass Details

Date: 16 January 2020
Orbit: 548 x 551 km, 53.0° (Epoch: 17 January)

Event Time Altitude Azimuth Distance (km) Brightness Sun altitude
Rises 18:35:16 0° 333° (NNW) 2,699 7.2 -6.0°
Reaches altitude 10° 18:37:31 10° 338° (NNW) 1,809 6.3 -6.5°
Maximum altitude 18:41:33 55° 56° (ENE) 658 3.7 -7.4°
Drops below altitude 10° 18:45:36 10° 134° (SE) 1,819 6.0 -8.4°
Sets 18:47:52 0° 139° (SE) 2,715 7.0 -8.9°
